Regional Weather Roundup
Issued by NWS

Home | Current Version | Previous Version | Graphics & Text | Print | Product List | Glossary On
Versions: 1 2 3 4 5 6 7 8 9 10 11 12 13 14 15 16 17 18 19 20 21 22 23 24 25 26 27 28 29 30 31 32 33 34 35 36 37 38 39 40 41 42 43 44 45 46 47 48 49 50
000
ASUS43 KLOT 012212
RWRIL

ILLINOIS REGIONAL WEATHER ROUNDUP
NATIONAL WEATHER SERVICE CHICAGO/ROMEOVILLE IL
500 PM CDT SAT AUG 01 2015

NOTE: "FAIR" INDICATES FEW OR NO CLOUDS BELOW 12,000 FEET WITH NO
SIGNIFICANT WEATHER AND/OR OBSTRUCTIONS TO VISIBILITY.

* THESE STATIONS ARE NOT UNDER NWS QUALITY CONTROL. THEY ALSO MAY NOT
  REPORT WEATHER SUCH AS PRECIPITATION OR FOG.

ILZ001-002-007-009-015-016-024-012300-
NORTHWEST ILLINOIS

CITY           SKY/WX    TMP DP  RH WIND       PRES   REMARKS
MOLINE         MOSUNNY   84  64  50 SW8       29.94F HX  85
STERLING*      MOSUNNY   86  63  45 W16       29.91S HX  87
SAVANNA*       MOSUNNY   85  63  47 W10       29.93S HX  86
$$

ILZ003-004-008-010-011-017-018-012300-
NORTH CENTRAL ILLINOIS

CITY           SKY/WX    TMP DP  RH WIND       PRES   REMARKS
ROCKFORD       MOSUNNY   85  63  47 W15G24    29.93F HX  86
FREEPORT*      CLOUDY    82  66  57 W12G17    29.94S HX  84
ROCHELLE*      MOSUNNY   84  64  50 W15       29.94S HX  85
DE KALB*       PTSUNNY   83  64  52 SW16G22   29.94F HX  85
PERU*          MOSUNNY   83  60  45 W12       29.96S HX  83
$$

ILZ005-006-012>014-019>023-012300-
NORTHEAST ILLINOIS

CITY           SKY/WX    TMP DP  RH WIND       PRES   REMARKS
CHICAGO-OHARE  PTSUNNY   85  59  41 W14G24    29.91F HX  84
CHICAGO-MIDWAY PTSUNNY   87  57  35 SW15G25   29.91F HX  86
AURORA         PTSUNNY   84  60  44 SW13      29.93F HX  84
LANSING*       PTSUNNY   83  55  37 W17       29.93S HX  82
JOLIET*        PTSUNNY   85  62  44 SW9       29.94S HX  85
WAUKEGAN       MOSUNNY   84  59  42 SW9G18    29.89F HX  84
DUPAGE AIRPORT MOSUNNY   83  60  45 SW17      29.92F HX  83
KANKAKEE*      MOSUNNY   84  62  48 W12       29.95F HX  84
WHEELING       MOSUNNY   86  57  37 W14G20    29.92F HX  85
MORRIS*        SUNNY     84  63  48 W10G17    29.93F HX  85
ROMEOVILLE*    PTSUNNY   83  56  39 W15G22    29.93F HX  82
NORTHERLY ISL    N/A     85  53  33 W14         N/A  HX  83
$$

LMZ740>746-012300-
SOUTHERN LAKE MICHIGAN

STATION/POSITION SKY/WX   TEMP    WIND        PRES    VSBY  WAVE
                          AIR SEA DIR/SP/G                  HT/PER
                          (F)     (DEG/KT/KT) (MB)    (MI)  (FT/S)
HARRISON CRIB              77     130/  5/ 11   N/A
BURNHAM HARBOR             85     270/  8/ 17   N/A
CALUMET HARBOR             85     230/  7/ 13   N/A
BURNS HARBOR               80     340/  2/  3 1013.5F
MICHIGAN CITY              78      10/  3/  3   N/A
MICHIGAN CITY 6N           78 76   70/  4/  6   N/A           1/ 4
ST. JOSEPH                 77 75  140/  2/  2   N/A           1/ 4
$$

ILZ025>027-034>036-040-047-049-050-058-095>099-012300-
WEST-CENTRAL ILLINOIS

CITY           SKY/WX    TMP DP  RH WIND       PRES   REMARKS
QUINCY         SUNNY     85  69  58 SW8       29.98F HX  89
GALESBURG*     MOSUNNY   83  65  53 SW9       29.97S HX  85
MACOMB*        SUNNY     85  65  50 W6        30.00S HX  87
JACKSONVILLE*  SUNNY     86  67  53 S6        29.98F HX  89
PITTSFIELD*    SUNNY     85  68  57 S8        30.00F HX  88
$$

ILZ028>032-037-038-041>044-048-051>054-059>061-012300-
CENTRAL ILLINOIS

CITY           SKY/WX    TMP DP  RH WIND       PRES   REMARKS
PONTIAC        PTSUNNY   82  67  59 SW8       29.97F HX  85
BLOOMINGTON    SUNNY     85  62  45 SW14      29.99F HX  85
DECATUR        SUNNY     86  58  38 W8        29.99F HX  85
PEORIA         SUNNY     88  59  37 W12       29.96F HX  87
LACON*         PTSUNNY   84  61  46 SW7       29.95F HX  84
LINCOLN*       SUNNY     88  55  32 SW7       29.97S HX  86
SPRINGFIELD    SUNNY     87  63  44 SW8       29.99S HX  88
TAYLORVILLE    SUNNY     82  61  47 SW5       30.00S HX  83
$$

ILZ033-039-045-046-055>057-062-063-012300-
EAST-CENTRAL ILLINOIS

CITY           SKY/WX    TMP DP  RH WIND       PRES   REMARKS
CHAMPAIGN      MOSUNNY   83  62  49 SW7       29.99F HX  84
DANVILLE*      MOSUNNY   82  64  54 W8        29.95F HX  83
RANTOUL*       MOSUNNY   85  64  47 SW8       29.98S HX  86
MATTOON        MOSUNNY   85  57  38 SW5       29.99F HX  84
PARIS*         MOSUNNY   83  62  49 SW6       30.00F HX  83
$$

ILZ079-100>102-012300-
SOUTHWEST ILLINOIS

CITY           SKY/WX    TMP DP  RH WIND       PRES   REMARKS
ALTON          MOSUNNY   84  64  51 CALM      30.00S HX  86
BELLEVILLE     SUNNY     88  69  52 SW7       29.99S HX  92
CAHOKIA*       PTSUNNY   90  65  43 S3        29.99S HX  92
SPARTA*        PTSUNNY   86  67  53 CALM      30.01S HX  88
$$

ILZ064>066-069>071-074>076-080>082-084>086-088>090-092>094-012300-
SOUTH-CENTRAL ILLINOIS

CITY           SKY/WX    TMP DP  RH WIND       PRES   REMARKS
CARBONDALE     PTSUNNY   87  66  49 NW5       29.99F HX  89
CAIRO*         SUNNY     88  72  60 NW3       29.98S HX  94
EFFINGHAM*     MOSUNNY   86  52  30 SE5       30.01S HX  84
MARION         MOSUNNY   90  68  48 NE7       30.00F HX  93
MT. VERNON     MOSUNNY   90  61  37 S5        30.01S HX  89
CENTRALIA*     MOSUNNY   87  55  33 SE3       30.00S HX  85
SALEM*         MOSUNNY   88  54  31 CALM      30.01R HX  85
METROPOLIS*    SUNNY     88  71  58 NW5       29.99S HX  94
$$

ILZ067-068-072-073-078-083-087-091-012300-
SOUTHEAST ILLINOIS

CITY           SKY/WX    TMP DP  RH WIND       PRES   REMARKS
LAWRENCEVILLE  MOSUNNY   86  57  37 NW8       30.00S HX  85
FLORA*         MOSUNNY   85  56  36 CALM      30.01R HX  84
FAIRFIELD*     SUNNY     85  62  44 N3        30.00R HX  85
HARRISBURG*    MOSUNNY   86  59  40 CALM      30.01S HX  85
ROBINSON*      MOSUNNY   84  57  39 W3        30.01S HX  83
CARMI*         SUNNY     85  55  35 CALM      29.99S HX  84
$$

ABBREVIATIONS USED IN REMARKS
   TC - TEMPERATURE IN CELSIUS
  WCI - WIND CHILL INDEX
   HX - HEAT INDEX
  VSB - VISIBILITY
$$



USA.gov is the U.S. government's official web portal to all federal, state and local government web resources and services.